FW5945 Weather Reports


time (UTC)temp
F
wind
direction
speed
knots
gust
knots
rain 1hr
in
rain 24hr
in
rain mn
in
humidity
%
barometer
mb
20260503200655 73 192 5.2 11.3 0.00 0.01 0.01 44 1017.6
20260503195654 71 181 1.7 11.3 0.00 0.01 0.01 45 1017.9
20260503194653 72 211 3.5 10.4 0.00 0.01 0.01 44 1017.9
20260503193652 72 229 6.1 11.3 0.00 0.01 0.01 44 1018.3
20260503192619 73 240 3.5 7.8 0.00 0.01 0.01 44 1018.6
20260503191618 73 269 6.1 7.8 0.00 0.01 0.01 45 1019.0
20260503190546 73 40 1.7 7.0 0.00 0.01 0.01 46 1019.0
20260503185544 69 336 2.6 9.6 0.00 0.01 0.01 50 1019.3
20260503184511 70 245 5.2 10.4 0.00 0.01 0.01 47 1019.3
20260503183510 71 0 2.6 10.4 0.00 0.01 0.01 48 1019.3
20260503182508 72 314 4.3 7.8 0.00 0.01 0.01 47 1019.6
20260503181507 71 23 2.6 7.8 0.00 0.01 0.01 48 1019.6
20260503180505 70 293 2.6 7.0 0.00 0.01 0.01 49 1019.6
20260503175504 71 301 1.7 7.0 0.00 0.01 0.01 50 1019.6
20260503174502 70 141 1.7 7.0 0.00 0.01 0.01 51 1019.6
20260503173501 68 31 3.5 7.0 0.00 0.02 0.01 52 1020.0
20260503172459 68 288 3.5 6.1 0.00 0.02 0.01 51 1020.0
20260503171459 69 338 1.7 7.0 0.00 0.05 0.01 49 1020.0
20260503170457 69 13 1.7 7.0 0.00 0.07 0.01 50 1020.0
20260503150309 64 88 2.6 9.6 0.00 0.16 0.01 58 1021.0
20260503140229 62 26 3.5 7.8 0.00 0.24 0.01 62 1020.7
20260503131221 58 2 1.7 7.0 0.00 0.28 0.01 86 1020.3
20260503130219 56 335 2.6 7.0 0.00 0.30 0.01 88 1020.3
20260503120212 50 327 1.7 4.3 0.00 0.43 0.01 95 1020.0
20260503080836 49 16 0.0 0.0 0.00 0.66 0.00 92 1017.6
20260503072759 50 152 0.0 0.9 0.00 0.71 0.00 91 1017.3
20260503071727 50 167 0.9 1.7 0.00 0.73 0.00 91 1016.9
20260503070726 50 183 0.9 1.7 0.00 0.74 0.00 91 1016.9
20260503054613 52 138 0.9 0.9 0.00 0.83 0.00 92 1016.9
20260503053612 52 135 0.0 1.7 0.00 0.83 0.00 91 1016.9
20260503052611 52 146 0.0 1.7 0.00 0.83 0.00 91 1016.9
20260503051609 52 160 0.9 1.7 0.00 0.83 0.00 91 1016.9
20260503050609 52 143 0.0 2.6 0.00 0.83 0.00 91 1016.9
20260503045607 52 140 0.9 1.7 0.00 0.83 0.00 91 1016.9
20260503044534 52 180 0.9 2.6 0.00 0.83 0.00 91 1016.6
20260503043532 52 221 1.7 2.6 0.00 0.83 0.00 91 1016.6
20260503042532 52 264 0.9 2.6 0.00 0.83 0.00 91 1016.6
20260503041531 52 293 0.9 3.5 0.00 0.83 0.00 91 1016.6
20260503040530 52 313 1.7 3.5 0.00 0.83 0.00 91 1016.6
20260503035528 52 309 1.7 2.6 0.00 0.83 0.83 91 1016.6
20260503034527 52 319 1.7 2.6 0.00 0.83 0.83 91 1016.3
20260503033526 52 301 0.9 2.6 0.00 0.83 0.83 91 1016.3
20260503032525 52 269 0.0 1.7 0.00 0.83 0.83 91 1015.9
20260503031524 52 283 0.9 1.7 0.00 0.83 0.83 91 1015.9
20260503030522 52 295 0.9 2.6 0.00 0.83 0.83 91 1015.9
20260503025521 52 281 0.9 2.6 0.00 0.83 0.83 90 1015.6
20260503024520 52 201 0.9 1.7 0.00 0.83 0.83 90 1015.6
20260503023518 52 199 0.9 1.7 0.00 0.83 0.83 90 1015.6
20260503022445 52 186 0.9 1.7 0.00 0.83 0.83 90 1015.6
20260503021444 52 191 0.9 1.7 0.00 0.83 0.83 89 1015.2
20260503020443 52 194 0.9 1.7 0.00 0.83 0.83 89 1015.2
20260503015441 53 194 0.9 1.7 0.00 0.83 0.83 89 1014.9
20260503014440 53 175 0.9 2.6 0.00 0.83 0.83 88 1014.9
20260503013438 53 187 0.9 2.6 0.00 0.83 0.83 88 1014.6
20260503012437 53 174 1.7 2.6 0.00 0.83 0.83 88 1014.6
20260503011437 54 184 0.0 1.7 0.00 0.83 0.83 88 1014.6
20260503010435 54 216 0.9 1.7 0.00 0.83 0.83 87 1014.6
20260503005434 54 298 0.9 1.7 0.00 0.83 0.83 86 1014.2
20260503004433 55 305 0.9 2.6 0.00 0.83 0.83 86 1014.2
20260503003431 55 304 1.7 3.5 0.00 0.83 0.83 85 1014.2
20260503002429 55 300 2.6 3.5 0.00 0.83 0.83 85 1013.9
20260503001429 56 344 1.7 4.3 0.00 0.83 0.83 84 1013.5
20260503000429 56 75 1.7 7.0 0.00 0.83 0.83 83 1013.2
20260502235425 56 58 3.5 7.0 0.00 0.83 0.83 83 1013.2
20260502234424 57 88 2.6 5.2 0.00 0.83 0.83 83 1012.9
20260502233422 57 62 1.7 5.2 0.00 0.83 0.83 84 1012.9
20260502232420 56 49 0.9 6.1 0.00 0.83 0.83 85 1013.2
20260502231348 56 34 1.7 6.1 0.00 0.83 0.83 84 1012.9
20260502230346 56 20 2.6 8.7 0.00 0.83 0.83 84 1012.9
20260502225345 56 43 2.6 8.7 0.00 0.83 0.83 84 1012.9
20260502224345 56 45 2.6 7.8 0.00 0.83 0.83 84 1012.9
20260502223344 56 54 2.6 8.7 0.00 0.83 0.83 84 1012.9
20260502222342 56 51 3.5 8.7 0.00 0.83 0.83 84 1012.5
20260502221310 56 51 2.6 7.8 0.00 0.83 0.83 85 1012.5
20260502220308 56 55 2.6 11.3 0.00 0.83 0.83 86 1012.9
20260502215235 56 19 3.5 11.3 0.00 0.83 0.83 86 1012.5
20260502214235 56 352 5.2 10.4 0.00 0.83 0.83 87 1012.5
20260502213233 56 326 4.3 9.6 0.00 0.83 0.83 87 1012.5
20260502212200 57 31 5.2 8.7 0.00 0.83 0.83 87 1012.2
20260502211159 56 34 1.7 11.3 0.00 0.83 0.83 88 1012.2
20260502210158 56 46 1.7 11.3 0.00 0.83 0.83 87 1012.2
20260502205157 56 30 3.5 8.7 0.00 0.83 0.83 89 1012.2
20260502204156 56 29 3.5 10.4 0.00 0.83 0.83 88 1012.2
20260502203155 56 15 4.3 10.4 0.00 0.83 0.83 88 1012.2
20260502202123 56 12 3.5 10.4 0.00 0.83 0.83 88 1012.2
20260502201122 56 38 3.5 12.2 0.00 0.83 0.83 88 1012.2